Weather History for Dallas Addison, TX

Change the Weather History Date:

Friday, January 3, 2014

  Actual Average Record
Temperature  
Mean Temperature 39 °F -  
Max Temperature 50 °F 54 °F 82 °F (2006)
Min Temperature 28 °F 38 °F 21 °F (1999)
Degree Days  
Heating Degree Days 26    
Moisture  
Dew Point 21 °F    
Average Humidity 45    
Maximum Humidity 74    
Minimum Humidity 28    
Precipitation  
Precipitation 0.00 in - - ()
Sea Level Pressure  
Sea Level Pressure 30.30 in    
Wind  
Wind Speed 7 mph (SE)    
Max Wind Speed 17 mph    
Max Gust Speed 29 mph    
Visibility 12 miles    
Events      
Averages and records for this station are not official NWS values.
T = Trace of Precipitation, MM = Missing Value Source: NWS Daily Summary

Daily Weather History Graph

Daily Weather History Graph

Search for Another Location

Airport:

Trip Planner

Search our weather history database for the weather conditions in past years. The results will help you decide how hot, cold, wet, or windy it might be!

Date:

Astronomy

Jan. 03, 2014 Rise Set
Actual Time 7:30 AM CST 5:33 PM CST
Civil Twilight 7:03 AM CST 6:00 PM CST
Nautical Twilight 6:32 AM CST 6:31 PM CST
Astronomical Twilight 6:02 AM CST 7:01 PM CST
Moon 9:06 AM CST (1/3) 8:33 PM CST (1/3)
Length of Visible Light 10h 57m
Length of Day
10h 02m
Waxing Crescent, 8% of the Moon is Illuminated
Jan 3
Waxing Crescent
Jan 7
First Quarter
Jan 15
Full
Jan 23
Last Quarter
Jan 30
New

Hourly Weather History & Observations

Time (CST) Temp. Windchill Dew Point Humidity Pressure Visibility Wind Dir Wind Speed Gust Speed Precip Events Conditions
12:15 AM - - - N/A% 30.47 in 10.0 mi Calm Calm - N/A   Clear
12:35 AM - - - N/A% 30.47 in 10.0 mi East 3.5 mph - N/A   Clear
12:55 AM - - - N/A% 30.47 in 10.0 mi East 5.8 mph - N/A   Clear
1:15 AM - - - N/A% 30.46 in 10.0 mi East 4.6 mph - N/A   Clear
1:35 AM - - - N/A% 30.46 in 10.0 mi East 4.6 mph - N/A   Clear
1:55 AM - - - N/A% 30.46 in 10.0 mi East 5.8 mph - N/A   Clear
2:15 AM - - - N/A% 30.46 in 10.0 mi East 4.6 mph - N/A   Clear
2:35 AM - - - N/A% 30.46 in 10.0 mi ESE 4.6 mph - N/A   Clear
2:55 AM - - - N/A% 30.46 in 10.0 mi ESE 4.6 mph - N/A   Clear
3:15 AM - - - N/A% 30.46 in 10.0 mi SE 3.5 mph - N/A   Clear
3:35 AM - - - N/A% 30.46 in 10.0 mi ESE 5.8 mph - N/A   Clear
3:55 AM - - - N/A% 30.45 in 10.0 mi ESE 6.9 mph - N/A   Clear
4:15 AM - - - N/A% 30.44 in 10.0 mi East 8.1 mph - N/A   Clear
4:35 AM - - - N/A% 30.44 in 10.0 mi East 5.8 mph - N/A   Clear
4:55 AM - - - N/A% 30.43 in 10.0 mi East 5.8 mph - N/A   Clear
5:50 AM 30.2 °F 24.3 °F 19.4 °F 64% 30.42 in 13.0 mi East 5.8 mph - N/A   Clear
6:47 AM 30.2 °F 25.4 °F 21.2 °F 69% 30.42 in 13.0 mi East 4.6 mph - N/A   Clear
7:47 AM 28.4 °F 22.2 °F 21.2 °F 74% 30.41 in 13.0 mi ESE 5.8 mph - N/A   Clear
8:47 AM 32.0 °F 24.8 °F 19.4 °F 60% 30.42 in 13.0 mi ESE 8.1 mph 16.1 mph N/A   Clear
9:47 AM 35.6 °F 27.1 °F 19.4 °F 52% 30.42 in 13.0 mi SE 12.7 mph 21.9 mph N/A   Partly Cloudy
10:47 AM 39.2 °F 31.6 °F 19.4 °F 45% 30.41 in 13.0 mi SSE 12.7 mph 21.9 mph N/A   Clear
11:47 AM 41.0 °F 34.3 °F 21.2 °F 45% 30.35 in 13.0 mi SSE 11.5 mph 19.6 mph N/A   Partly Cloudy
12:47 PM 44.6 °F 37.8 °F 21.2 °F 39% 30.29 in 13.0 mi SSE 15.0 mph 23.0 mph N/A   Partly Cloudy
1:47 PM 48.2 °F - 21.2 °F 34% 30.26 in 13.0 mi SSE 12.7 mph 23.0 mph N/A   Partly Cloudy
2:47 PM 50.0 °F - 21.2 °F 32% 30.21 in 13.0 mi South 11.5 mph 23.0 mph N/A   Clear
3:47 PM 50.0 °F - 19.4 °F 30% 30.17 in 13.0 mi SSE 11.5 mph 28.8 mph N/A   Clear
4:47 PM 50.0 °F - 17.6 °F 28% 30.15 in 15.0 mi SSE 13.8 mph 23.0 mph N/A   Partly Cloudy
5:47 PM 48.2 °F - 17.6 °F 30% 30.13 in 20.0 mi SSE 17.3 mph - N/A   Partly Cloudy
8:47 PM 44.6 °F 37.4 °F 30.2 °F 57% 30.09 in 20.0 mi SSE 16.1 mph 24.2 mph N/A   Clear
9:15 PM 45.5 °F 39.2 °F 22.1 °F 40% 30.09 in 10.0 mi South 13.8 mph 21.9 mph N/A   Clear
9:35 PM 45.1 °F 38.8 °F 22.3 °F 40% 30.09 in 10.0 mi South 13.8 mph 24.2 mph N/A   Clear
9:47 PM 44.6 °F 37.8 °F 21.2 °F 39% 30.08 in 20.0 mi SSE 15.0 mph 26.5 mph N/A   Clear
9:55 PM 44.6 °F 38.8 °F 22.3 °F 41% 30.09 in 10.0 mi South 11.5 mph 23.0 mph N/A   Clear
10:15 PM 44.8 °F 38.7 °F 22.1 °F 41% 30.09 in 10.0 mi South 12.7 mph 18.4 mph N/A   Clear
10:35 PM 44.6 °F 37.8 °F 22.3 °F 41% 30.08 in 10.0 mi South 15.0 mph 23.0 mph N/A   Clear
10:55 PM 44.6 °F 37.8 °F 22.1 °F 41% 30.07 in 10.0 mi South 15.0 mph 23.0 mph N/A   Clear
11:15 PM 44.6 °F 38.1 °F 22.5 °F 42% 30.06 in 10.0 mi South 13.8 mph 23.0 mph N/A   Clear
11:35 PM 43.9 °F 36.5 °F 22.6 °F 43% 30.05 in 10.0 mi South 16.1 mph 23.0 mph N/A   Clear
11:55 PM 43.7 °F 36.9 °F 22.6 °F 43% 30.04 in 10.0 mi South 13.8 mph 21.9 mph N/A   Clear